Weather in Kurdyukovskaya

Russia / Chechen Republic     43°41′27″N   46°26′53″E
temp.,
°C
wind,
m/s
gust,
m/s
humid.,
%
clouds,
%
prec.,
mm/h
press.,
hPa
HPBL,
m
19 september, sun
sun1900:00+15e410715 0.0 1017253
03:00+15ene4107089 0.0 1016198
06:00+15e41069100 0.0 1016213
09:00+23ese794797 0.0 10151272
12:00+26ese993813 0.0 10141539
15:00+24ese894396 0.0 10131320
18:00+20e61158100 0.0 1014587
21:00+18ene41168100 0.0 1013332
20 september, mon
mon2000:00+17ene378051 0.0 1013133
03:00+16ese228748 0.0 101224
06:00+16wsw119096 0.1 101311
09:00+22nw33595 0.1 1013602
12:00+27nnw3341100 0.0 10121312
15:00+29n333413 0.0 10121739
18:00+23ene4548100 0.0 1013102
21:00+20e2261100 0.0 101411
21 september, tue
tue2100:00+19w117078 0.0 101511
03:00+18wnw22645 0.0 101511
06:00+18nnw11685 0.0 101511
09:00+24ne11487 0.0 1015623
12:00+28e343328 0.0 10121453
15:00+30ese653323 0.0 10101886
18:00+22ese61064100 0.0 1010378
21:00+19e41074100 0.0 1009283
22 september, wed
wed2200:00+18nne228295 0.1 101020
03:00+17wnw358394 0.1 101194
06:00+18wnw4975100 0.0 1013237
09:00+22nnw5662100 0.0 10141009
12:00+22nnw6660100 0.0 10131194
15:00+21nnw6753100 0.0 10131133
18:00+16nnw6973100 0.0 1015447
21:00+16nw4675100 0.0 1015418
23 september, thu
thu2300:00+15nw3573100 0.3 1015406
03:00+14nw3477100 0.5 1014335
06:00+14nw2379100 0.0 1014243
09:00+16nnw2268100 0.0 1013472
12:00+18nnw2261100 0.0 1012702
15:00+21nne33514 0.0 10091210
18:00+18ne346296 0.0 100875
21:00+15e2284100 0.0 100726